DW1970 Weather Reports


Display with metric or nautical units.
time (UTC)temp
F
wind
direction
speed
MPH
gust
MPH
rain 1hr
in
rain 24hr
in
rain mn
in
humidity
%
barometer
mb
20260510233057 59 12 0.0 0.0 0.00 0.01 0.01 86 1013.9
20260510231553 58 297 0.0 10.0 0.00 0.01 0.01 86 1014.2
20260510230053 59 7 0.0 4.0 0.00 0.01 0.01 85 1014.3
20260510224552 59 3 0.0 1.0 0.00 0.01 0.01 85 1014.6
20260510223101 59 358 2.0 10.0 0.00 0.01 0.01 86 1014.7
20260510221551 59 340 0.0 1.0 0.00 0.01 0.01 86 1014.9
20260510220050 58 19 0.0 10.0 0.00 0.01 0.01 88 1015.1
20260510214551 58 343 1.0 8.0 0.00 0.01 0.01 86 1015.2
20260510213050 59 327 0.0 0.0 0.00 0.01 0.01 86 1015.2
20260510211549 59 298 0.0 0.0 0.00 0.01 0.01 86 1015.2
20260510210047 59 341 0.0 0.0 0.00 0.01 0.01 87 1015.3
20260510204552 59 300 0.0 2.0 0.00 0.02 0.01 86 1015.1
20260510203045 58 337 0.0 0.0 0.00 0.02 0.01 88 1015.1
20260510201544 59 306 0.0 4.0 0.00 0.02 0.01 88 1015.3
20260510200049 59 337 0.0 4.0 0.00 0.02 0.01 88 1015.3
20260510194559 59 312 0.0 0.0 0.00 0.02 0.01 89 1015.5
20260510193042 59 244 0.0 0.0 0.00 0.02 0.01 90 1015.6
20260510191539 58 329 0.0 1.0 0.00 0.02 0.01 93 1015.8
20260510190046 57 327 0.0 0.0 0.00 0.02 0.01 94 1015.7
20260510184532 56 329 0.0 0.0 0.00 0.02 0.01 94 1015.8
20260510183032 56 291 0.0 0.0 0.00 0.02 0.01 94 1015.6
20260510181531 56 289 0.0 1.0 0.00 0.02 0.01 94 1015.6
20260510180027 55 316 0.0 0.0 0.00 0.02 0.01 96 1015.7
20260510174526 54 323 0.0 0.0 0.00 0.02 0.01 96 1015.8
20260510173024 54 281 0.0 2.0 0.00 0.02 0.01 96 1015.7
20260510171522 53 341 0.0 0.0 0.01 0.02 0.01 96 1015.8
20260510170020 53 327 0.0 0.0 0.01 0.02 0.01 96 1015.7
20260510164523 53 312 0.0 0.0 0.01 0.02 0.01 97 1015.6
20260510163019 53 311 0.0 0.0 0.01 0.02 0.01 96 1015.5
20260510161524 53 96 0.0 0.0 0.00 0.01 0.00 97 1015.3
20260510160023 52 184 0.0 0.0 0.00 0.01 0.00 97 1015.3
20260510154511 51 208 0.0 0.0 0.00 0.01 0.00 97 1015.3
20260510153013 51 209 0.0 0.0 0.00 0.01 0.00 96 1015.3
20260510151522 51 223 0.0 0.0 0.00 0.01 0.00 97 1015.4
20260510150009 51 350 0.0 0.0 0.00 0.01 0.00 97 1015.3
20260510144508 51 349 0.0 0.0 0.00 0.01 0.00 96 1015.3
20260510143010 51 96 0.0 0.0 0.00 0.01 0.00 96 1015.0
20260510141507 50 96 0.0 0.0 0.00 0.01 0.00 96 1014.8
20260510140002 50 96 0.0 0.0 0.00 0.01 0.00 96 1014.5
20260510134502 50 94 0.0 0.0 0.00 0.01 0.00 96 1014.4
20260510133002 50 355 0.0 2.0 0.00 0.01 0.00 96 1014.2
20260510131501 50 40 0.0 0.0 0.00 0.01 0.00 96 1014.2
20260510130003 50 7 0.0 0.0 0.00 0.01 0.00 96 1014.2
20260510124603 50 347 0.0 0.0 0.00 0.01 0.00 96 1014.1
20260510123100 51 346 0.0 0.0 0.00 0.01 0.00 96 1014.1
20260510121607 50 346 0.0 0.0 0.00 0.01 0.00 96 1014.2
20260510120058 51 3 0.0 0.0 0.00 0.01 0.00 96 1014.3
20260510114617 50 3 0.0 0.0 0.00 0.01 0.00 96 1014.4
20260510113101 51 3 0.0 0.0 0.00 0.01 0.00 96 1014.4
20260510111604 51 3 0.0 0.0 0.00 0.01 0.00 96 1014.4
20260510110056 50 347 0.0 0.0 0.00 0.01 0.00 96 1014.3
20260510104610 50 339 0.0 0.0 0.00 0.01 0.00 96 1014.2
20260510103055 51 338 0.0 0.0 0.00 0.01 0.00 96 1014.2
20260510101602 51 338 0.0 0.0 0.00 0.01 0.00 96 1014.1
20260510094604 51 337 0.0 0.0 0.00 0.01 0.00 96 1014.1
20260510093053 51 291 0.0 0.0 0.00 0.01 0.00 96 1014.2
20260510091552 51 291 0.0 0.0 0.00 0.01 0.00 96 1014.1
20260510090052 51 331 0.0 0.0 0.00 0.01 0.00 96 1014.3
20260510084550 51 332 0.0 0.0 0.00 0.01 0.00 96 1014.5
20260510083050 51 333 0.0 0.0 0.00 0.01 0.00 96 1014.5
20260510081548 50 223 0.0 0.0 0.00 0.01 0.00 96 1014.5
20260510080056 51 223 0.0 0.0 0.00 0.01 0.00 96 1014.3
20260510074546 51 314 0.0 0.0 0.00 0.01 0.00 96 1014.3
20260510073048 51 340 0.0 0.0 0.00 0.01 0.00 96 1014.5
20260510071543 51 348 1.0 6.0 0.00 0.01 0.00 96 1014.6
20260510070052 51 352 0.0 5.0 0.00 0.01 0.00 96 1014.6
20260510064549 51 339 0.0 0.0 0.00 0.01 0.01 96 1014.5
20260510063043 51 345 0.0 0.0 0.00 0.01 0.01 96 1014.4
20260510061539 51 345 0.0 0.0 0.00 0.01 0.01 96 1014.3
20260510060041 51 346 0.0 0.0 0.00 0.01 0.01 95 1014.3
20260510054545 51 341 0.0 0.0 0.00 0.01 0.01 95 1014.4
20260510053036 51 331 0.0 0.0 0.00 0.01 0.01 95 1014.3
20260510051537 51 337 0.0 0.0 0.00 0.01 0.01 95 1014.3
20260510050040 51 308 0.0 0.0 0.00 0.01 0.01 95 1014.3
20260510044537 51 338 0.0 8.0 0.00 0.01 0.01 95 1014.2
20260510043036 51 337 0.0 11.0 0.00 0.01 0.01 95 1014.2
20260510041545 51 358 1.0 9.0 0.00 0.01 0.01 95 1014.2
20260510040034 51 344 0.0 0.0 0.00 0.01 0.01 94 1014.0
20260510034534 52 343 0.0 0.0 0.00 0.01 0.01 94 1013.7
20260510033032 52 331 0.0 4.0 0.00 0.01 0.01 94 1013.5
20260510031534 52 325 0.0 1.0 0.00 0.01 0.01 93 1013.4
20260510030031 52 1 0.0 12.0 0.00 0.01 0.01 93 1013.4
20260510024532 53 339 4.0 16.0 0.00 0.01 0.01 93 1013.4
20260510023029 53 343 8.0 17.0 0.00 0.01 0.01 92 1013.4
20260510021535 54 17 7.0 17.0 0.00 0.01 0.01 92 1013.4
20260510020029 54 25 4.0 17.0 0.00 0.01 0.01 91 1013.5
20260510014525 54 356 4.0 21.0 0.00 0.01 0.01 92 1013.7
20260510013028 54 349 5.0 19.0 0.00 0.01 0.01 91 1013.7
20260510011523 55 339 6.0 19.0 0.00 0.01 0.01 91 1013.9
20260510010021 55 354 5.0 18.0 0.00 0.01 0.01 90 1013.9
20260510004519 56 31 9.0 18.0 0.00 0.01 0.01 89 1014.1
20260510003019 56 23 5.0 19.0 0.00 0.01 0.01 90 1014.2
20260510001528 56 338 9.0 19.0 0.00 0.01 0.01 88 1014.4
20260510000016 57 349 5.0 14.0 0.00 0.01 0.01 87 1014.4
20260509234516 57 10 10.0 19.0 0.00 0.01 0.01 88 1014.6